User: anonymous   Login
Location: Dompnac
(44.5644°N, 4.1026°E)
Time: 17:07:44
(UTC+00:00)
Language:

Cosmos 1634 Rocket - Orbit

View from above orbital plane
View from above orbital plane
View from above satellite
View from above satellite

Ground track
Ground track

The orbit data is extracted from the following two-line orbital elements,

1 15598U 85022B   20338.21258914  .00000065  00000-0  50331-4 0  9990
2 15598  82.9389 246.7837 0022142 167.7801 346.3077 13.76577629794516
Epoch (UTC): 03 December 2020 05:06:07
Eccentricity: 0.0022142
inclination: 82.9389°
perigee height: 960 km
apogee height: 992 km
right ascension of ascending node: 246.7837°
argument of perigee: 167.7801°
revolutions per day: 13.76577629
mean anomaly at epoch: 346.3077°
orbit number at epoch: 79451

The dashed part of the orbit path shows where the satellite is in the earth's shadow,  

DLR